Voltar ao catálogo

SL-14 DEB

AtivoPO
NORAD 26004·DEBRIS·🇷🇺 Russia

Lançado Sep 28, 1991 de Plesetsk Cosmodrome

Loading…

Próximas Passagens (próximas 24 horas)

TLE

AtualizadoSource: Space-Track

Época: Sep 14, 2026, 01:03 UTC

1 26004U 91068P   26257.04381352  .00001667  00000-0  70668-2 0  9993
2 26004  82.5715 271.9502 0109602 170.9949 217.5549 12.80335691243487

Acompanhe SL-14 DEB em tempo real com AllMySat

Download on the App Store